Notices

What's New in latest Release from April 7th, 2021:

- Updated Glossary, including Speed of Maximum Gust, and Total Hourly Precipitation

- Updated national and regional climate services offices contacts and prices information

- Addition of station inventory lists for 1981-2010, 1971-2000, and 1961-1990 Normals.

If you haven't already, please take our survey and provide feedback about our website: https://eccc.sondage-survey.ca/f/LanguageSelection.aspx?s=442ca660-fcf1-47c0-95a9-59707d6fd709

Hourly Data Report for February 26, 2021

OTTAWA INTL A
ONTARIO
Current Station Operator: NAVCAN

45°19'00.000" N
75°40'00.000" W
114.90 m
6106001
71628
YOW

Download Data

Hourly Data (February 2021)
Hourly Data Report for February 26, 2021
TIME
LST
Temp Definition
°C
Dew Point Definition
°C
Rel Hum Definition
%
Precip. Amount Definition
mm

Wind Dir Definition
10's deg

Wind Spd Definition
km/h
Visibility Definition
km
Stn Press Definition
kPa
Hmdx Definition


Wind Chill Definition


Weather Definition


00:00 -10.1 -13.3 77   20 5 24.1 101.11   -13 LegendNANA
01:00 -11.4 -13.8 83   20 5 24.1 101.14   -15 Mostly Cloudy
02:00 -10.7 -12.9 84   0 1 24.1 101.21   -11 LegendNANA
03:00 -10.7 -13.0 83   18 8 24.1 101.24   -15 LegendNANA
04:00 -10.7 -13.2 82   19 4 24.1 101.34   -13 Mostly Cloudy
05:00 -11.5 -13.3 87   18 4 24.1 101.37   -14 LegendNANA
06:00 -13.4 -14.6 91   17 6 24.1 101.42   -17 LegendNANA
07:00 -12.6 -14.0 90   36 1 24.1 101.52   -13 Mostly Cloudy
08:00 -12.3 -13.8 88   15 4 24.1 101.63   -15 LegendNANA
09:00 -10.0 -13.2 78   18 7 24.1 101.62   -14 LegendNANA
10:00 -6.2 -12.2 63   18 9 24.1 101.61   -10 Mainly Clear
11:00 -4.6 -11.2 60   16 13 24.1 101.49   -10 LegendNANA
12:00 -3.1 -10.6 56   17 13 24.1 101.45   -8 LegendNANA
13:00 -1.8 -9.8 55   19 12 24.1 101.42   -6 Mostly Cloudy
14:00 -0.8 -9.3 53   21 10 24.1 101.50   -4 LegendNANA
15:00 0.3 -8.2 53   23 12 24.1 101.56     LegendNANA
16:00 0.6 -8.2 52   20 19 24.1 101.52     Mostly Cloudy
17:00 0.2 -8.1 54   17 16 24.1 101.44     LegendNANA
18:00 -2.3 -8.9 61   15 14 24.1 101.30   -7 LegendNANA
19:00 -3.3 -10.0 60   16 11 24.1 101.27   -8 Mainly Clear
20:00 -4.1 -10.1 63   16 12 24.1 101.26   -9 LegendNANA
21:00 -5.0 -10.8 64   16 10 24.1 101.23   -9 LegendNANA
22:00 -4.9 -10.8 64   15 7 24.1 101.19   -8 Mainly Clear
23:00 -9.7 -13.5 74   6 8 24.1 101.11   -14 LegendNANA

Notes on Data Quality.

Legend

  • E = Estimated
  • M = Missing
  • NA = Not Available*
  • [empty] = Indicates an unobserved value
Date modified: